sat.trackr.live / text

‹ back to catalog

STARLINK-3568

NORAD 51856 · 2022-022E

PAYLOAD ACTIVE UNKNOWN

§ Identity

Operator
Country
US
Launch date
2022-03-03
Launch site
AFETR
Launch vehicle
Mass (kg)
RCS (m²)

Purposes: comms

External: N2YO · Heavens-Above · Gunter

§ Orbital elements

Epoch: 2026-05-24T22:56:49.568928Z

Period
95.44 min
Inclination
53.2147°
Eccentricity
0.0001221
Mean motion
15.08831702 rev/d
Perigee alt
538.9 km
Apogee alt
540.6 km
Semi-major
6,917.9 km
B*
1.1195e-4
RAAN
36.7587°
Arg perigee
92.9716°
Mean anomaly
267.1416°
Rev number
23,456

§ Raw data

STARLINK-35681 51856U 22022E   26144.95612927  .00001494  00000+0  11195-3 0  99982 51856  53.2147  36.7587 0001221  92.9716 267.1416 15.08831702234567

JSON: /api/v1/satellites/51856 · /tle

For live sub-satellite position, see the globe view (requires WebGL).

§ Visibility from observer

Set your observer location to see the next 7 days of passes ≥ 10°. The values pass through the URL so the page stays shareable.

No JS? Fill the form by hand. The geolocation button needs JavaScript.